HVK374 LTCV-LTFM

Flight info

Callsign HVK374
Flight time 2h 7m
Altitude 32000
Route ABDIK UW197 SRT UL614 MARTI UG8 GOBIT UL614 BAG UL605 YAVRU UL615 ERSEN
Aircraft A400/H-SDE2E3FGHIJ4J5M1RWXY/LB1D1

Departure

Time 2026-05-06 15:46
Airport Şırnak Şerafettin Elçi Airport (LTCV)

Arrival

Time 2026-05-06 17:54
Airport İstanbul Airport (LTFM)
Time Latitude Longitude Altitude Speed Heading
2026-05-06 15:46 37.53102 41.92216 3992 ft 230 kts
2026-05-06 15:46 37.54699 41.92554 4076 ft 237 kts
2026-05-06 15:47 37.56411 41.92914 4458 ft 261 kts
2026-05-06 15:47 37.58212 41.93292 5397 ft 268 kts
2026-05-06 15:47 37.60067 41.93680 6398 ft 269 kts
2026-05-06 15:47 37.61817 41.94048 6786 ft 243 kts
2026-05-06 15:48 37.63503 41.94403 6875 ft 253 kts
2026-05-06 15:48 37.65323 41.94786 6945 ft 273 kts
2026-05-06 15:48 37.67218 41.95182 7204 ft 287 kts
2026-05-06 15:48 37.69222 41.95275 8151 ft 288 kts 355°
2026-05-06 15:49 37.71196 41.94925 9257 ft 286 kts 348°
2026-05-06 15:49 37.73150 41.94363 10237 ft 291 kts 345°
2026-05-06 15:49 37.75142 41.93677 11016 ft 301 kts 343°
2026-05-06 15:49 37.77181 41.92935 11833 ft 307 kts 343°
2026-05-06 15:50 37.79230 41.92193 12674 ft 312 kts 343°
2026-05-06 15:50 37.81339 41.91447 13536 ft 316 kts 344°
2026-05-06 15:50 37.83474 41.90714 14398 ft 319 kts 345°
2026-05-06 15:50 37.85630 41.89961 15235 ft 323 kts 342°
2026-05-06 15:51 37.87738 41.88900 16067 ft 327 kts 333°
2026-05-06 15:51 37.89689 41.87380 16863 ft 331 kts 322°
2026-05-06 15:51 37.91367 41.85367 17644 ft 335 kts 310°
2026-05-06 15:51 37.92657 41.82930 18420 ft 339 kts 298°
2026-05-06 15:52 37.93703 41.80224 19200 ft 343 kts 294°
2026-05-06 15:52 37.94623 41.77418 19963 ft 347 kts 291°
2026-05-06 15:52 37.95491 41.74533 20695 ft 351 kts 290°
2026-05-06 15:52 37.96347 41.71612 21405 ft 356 kts 290°
2026-05-06 15:53 37.97206 41.68695 22095 ft 359 kts 290°
2026-05-06 15:53 37.98098 41.65709 22776 ft 363 kts 291°
2026-05-06 15:53 37.99011 41.62703 23415 ft 367 kts 291°
2026-05-06 15:53 37.99943 41.59665 24024 ft 371 kts 291°
2026-05-06 15:54 38.00889 41.56602 24602 ft 374 kts 291°
2026-05-06 15:54 38.01846 41.53513 25154 ft 377 kts 291°
2026-05-06 15:54 38.02798 41.50439 25659 ft 381 kts 291°
2026-05-06 15:54 38.03767 41.47297 26153 ft 384 kts 291°
2026-05-06 15:55 38.04738 41.44118 26625 ft 387 kts 291°
2026-05-06 15:55 38.05712 41.40915 27062 ft 390 kts 291°
2026-05-06 15:55 38.06690 41.37691 27481 ft 392 kts 291°
2026-05-06 15:55 38.07661 41.34487 27879 ft 395 kts 291°
2026-05-06 15:56 38.08651 41.31216 28257 ft 397 kts 291°
2026-05-06 15:56 38.09647 41.27928 28616 ft 400 kts 291°
2026-05-06 15:56 38.10650 41.24609 28977 ft 402 kts 291°
2026-05-06 15:56 38.11645 41.21317 29294 ft 404 kts 291°
2026-05-06 15:57 38.12654 41.17972 29612 ft 406 kts 291°
2026-05-06 15:57 38.13668 41.14611 29901 ft 408 kts 291°
2026-05-06 15:57 38.14685 41.11232 30212 ft 409 kts 291°
2026-05-06 15:57 38.15702 41.07849 30567 ft 409 kts 291°
2026-05-06 15:58 38.16718 41.04466 30928 ft 409 kts 291°
2026-05-06 15:58 38.17734 41.01081 31273 ft 408 kts 290°
2026-05-06 15:58 38.18745 40.97706 31631 ft 408 kts 290°
2026-05-06 15:58 38.19743 40.94370 31989 ft 407 kts 290°
2026-05-06 15:59 38.20751 40.90996 32349 ft 406 kts 290°
2026-05-06 15:59 38.21754 40.87635 32700 ft 406 kts 290°
2026-05-06 15:59 38.22747 40.84307 33039 ft 406 kts 290°
2026-05-06 15:59 38.23747 40.80947 33389 ft 405 kts 290°
2026-05-06 16:00 38.24742 40.77600 33742 ft 404 kts 290°
2026-05-06 16:00 38.25737 40.74251 34102 ft 403 kts 290°
2026-05-06 16:00 38.26726 40.70918 34425 ft 403 kts 290°
2026-05-06 16:00 38.27715 40.67578 34710 ft 402 kts 290°
2026-05-06 16:01 38.28703 40.64241 35005 ft 402 kts 290°
2026-05-06 16:01 38.29677 40.60943 35281 ft 402 kts 290°
2026-05-06 16:01 38.30665 40.57599 35554 ft 401 kts 290°
2026-05-06 16:01 38.31644 40.54276 35820 ft 400 kts 290°
2026-05-06 16:02 38.32622 40.50955 36079 ft 400 kts 290°
2026-05-06 16:02 38.33596 40.47645 36327 ft 399 kts 290°
2026-05-06 16:02 38.34559 40.44365 36531 ft 399 kts 290°
2026-05-06 16:02 38.35532 40.41050 36746 ft 399 kts 290°
2026-05-06 16:03 38.36504 40.37732 36938 ft 399 kts 290°
2026-05-06 16:03 38.37476 40.34410 37122 ft 399 kts 290°
2026-05-06 16:03 38.38434 40.31132 37277 ft 399 kts 290°
2026-05-06 16:03 38.39408 40.27799 37426 ft 399 kts 290°
2026-05-06 16:04 38.40378 40.24470 37560 ft 399 kts 290°
2026-05-06 16:04 38.41346 40.21145 37667 ft 400 kts 290°
2026-05-06 16:04 38.42304 40.17853 37798 ft 400 kts 290°
2026-05-06 16:04 38.43275 40.14512 37915 ft 400 kts 290°
2026-05-06 16:05 38.45212 40.07831 38097 ft 401 kts 290°
2026-05-06 16:05 38.47137 40.01176 38252 ft 401 kts 290°
2026-05-06 16:06 38.48093 39.97864 38492 ft 396 kts 290°
2026-05-06 16:06 38.49043 39.94569 38734 ft 392 kts 290°
2026-05-06 16:06 38.49979 39.91319 38972 ft 387 kts 290°
2026-05-06 16:06 38.50905 39.88102 39221 ft 383 kts 290°
2026-05-06 16:07 38.51808 39.84958 39446 ft 378 kts 290°
2026-05-06 16:07 38.52710 39.81815 39681 ft 373 kts 290°
2026-05-06 16:07 38.53597 39.78718 39929 ft 368 kts 290°
2026-05-06 16:07 38.54458 39.75710 40158 ft 362 kts 290°
2026-05-06 16:08 38.55317 39.72706 40390 ft 356 kts 290°
2026-05-06 16:08 38.56157 39.69767 40627 ft 350 kts 290°
2026-05-06 16:08 38.56989 39.66850 40858 ft 344 kts 290°
2026-05-06 16:08 38.57800 39.64005 41084 ft 337 kts 290°
2026-05-06 16:09 38.58592 39.61221 41310 ft 329 kts 290°
2026-05-06 16:09 38.59363 39.58512 41516 ft 319 kts 290°
2026-05-06 16:09 38.60101 39.55913 41735 ft 309 kts 290°
2026-05-06 16:09 38.60829 39.53355 41838 ft 304 kts 290°
2026-05-06 16:10 38.62323 39.48249 41581 ft 310 kts 291°
2026-05-06 16:10 38.63964 39.43167 41587 ft 305 kts 294°
2026-05-06 16:11 38.65843 39.38359 41501 ft 305 kts 300°
2026-05-06 16:11 38.66968 39.36021 41350 ft 309 kts 304°
2026-05-06 16:11 38.68232 39.33826 41306 ft 309 kts 310°
2026-05-06 16:12 38.71320 39.30060 41246 ft 307 kts 326°
2026-05-06 16:12 38.73189 39.28685 41089 ft 311 kts 338°
2026-05-06 16:12 38.75242 39.27853 40933 ft 314 kts 352°
2026-05-06 16:13 38.77420 39.27749 40878 ft 314 kts 10°
2026-05-06 16:13 38.79498 39.28566 40807 ft 314 kts 32°
2026-05-06 16:13 38.81161 39.30401 40542 ft 321 kts 59°
2026-05-06 16:13 38.81935 39.33093 40112 ft 331 kts 92°
2026-05-06 16:14 38.81427 39.35966 39799 ft 336 kts 126°
2026-05-06 16:14 38.79782 39.37963 39836 ft 328 kts 160°
2026-05-06 16:14 38.77599 39.38460 39954 ft 319 kts 193°
2026-05-06 16:14 38.75591 39.37372 39851 ft 318 kts 226°
2026-05-06 16:15 38.74361 39.35028 39524 ft 324 kts 259°
2026-05-06 16:15 38.74361 39.32160 39269 ft 328 kts 293°
2026-05-06 16:15 38.75618 39.29795 39273 ft 324 kts 327°
2026-05-06 16:15 38.77632 39.28758 39399 ft 317 kts
2026-05-06 16:16 38.79759 39.29308 39373 ft 317 kts 34°
2026-05-06 16:16 38.81315 39.31294 39167 ft 322 kts 68°
2026-05-06 16:16 38.81742 39.34089 39015 ft 324 kts 102°
2026-05-06 16:16 38.80865 39.36700 39051 ft 320 kts 137°
2026-05-06 16:17 38.79028 39.38203 39103 ft 315 kts 171°
2026-05-06 16:17 38.76892 39.38146 39033 ft 315 kts 204°
2026-05-06 16:17 38.75016 39.36713 38816 ft 316 kts 215°
2026-05-06 16:17 38.73316 39.34879 38606 ft 327 kts 232°
2026-05-06 16:18 38.70901 39.29820 38594 ft 337 kts 246°
2026-05-06 16:18 38.70119 39.26988 38652 ft 340 kts 258°
2026-05-06 16:18 38.69847 39.23969 38714 ft 342 kts 271°
2026-05-06 16:19 38.70610 39.17958 38841 ft 348 kts 287°
2026-05-06 16:19 38.72233 39.12067 38972 ft 353 kts 291°
2026-05-06 16:20 38.74023 39.06151 39102 ft 358 kts 290°
2026-05-06 16:20 38.75763 39.00167 39213 ft 363 kts 290°
2026-05-06 16:21 38.77477 38.94046 39299 ft 367 kts 289°
2026-05-06 16:21 38.79191 38.87842 39382 ft 370 kts 289°
2026-05-06 16:22 38.80906 38.81622 39467 ft 373 kts 289°
2026-05-06 16:22 38.82649 38.75292 39530 ft 376 kts 289°
2026-05-06 16:23 38.84385 38.68980 39594 ft 379 kts 289°
2026-05-06 16:23 38.86138 38.62592 39797 ft 375 kts 289°
2026-05-06 16:24 38.87000 38.59447 39993 ft 371 kts 289°
2026-05-06 16:24 38.87855 38.56321 40176 ft 367 kts 289°
2026-05-06 16:24 38.88686 38.53277 40363 ft 363 kts 289°
2026-05-06 16:24 38.89516 38.50236 40552 ft 358 kts 289°
2026-05-06 16:25 38.90334 38.47237 40732 ft 353 kts 289°
2026-05-06 16:25 38.91140 38.44276 40921 ft 348 kts 289°
2026-05-06 16:25 38.91930 38.41367 41096 ft 343 kts 289°
2026-05-06 16:25 38.92715 38.38478 41143 ft 341 kts 289°
2026-05-06 16:26 38.94261 38.32777 41228 ft 337 kts 289°
2026-05-06 16:26 38.95792 38.27118 41316 ft 332 kts 289°
2026-05-06 16:27 38.97282 38.21596 41402 ft 314 kts 289°
2026-05-06 16:27 38.98701 38.16337 41096 ft 318 kts 289°
2026-05-06 16:28 38.99437 38.13600 40829 ft 326 kts 289°
2026-05-06 16:28 39.00177 38.10843 40797 ft 326 kts 289°
2026-05-06 16:28 39.01649 38.05352 40788 ft 326 kts 289°
2026-05-06 16:29 39.03122 37.99849 40777 ft 325 kts 289°
2026-05-06 16:29 39.04594 37.94336 40763 ft 325 kts 289°
2026-05-06 16:30 39.05765 37.89942 40723 ft 321 kts 289°
2026-05-06 16:30 39.06696 37.86446 40327 ft 305 kts 289°
2026-05-06 16:30 39.07398 37.83830 39978 ft 314 kts 289°
2026-05-06 16:31 39.08833 37.78522 39760 ft 315 kts 288°
2026-05-06 16:31 39.09525 37.75884 39863 ft 312 kts 288°
2026-05-06 16:31 39.10214 37.73248 39985 ft 311 kts 288°
2026-05-06 16:32 39.11601 37.67946 40002 ft 313 kts 288°
2026-05-06 16:32 39.13006 37.62598 40026 ft 316 kts 288°
2026-05-06 16:33 39.14415 37.57247 40061 ft 318 kts 288°
2026-05-06 16:34 39.16553 37.49106 40135 ft 320 kts 288°
2026-05-06 16:34 39.17973 37.43680 40275 ft 317 kts 288°
2026-05-06 16:34 39.18691 37.40933 40103 ft 326 kts 288°
2026-05-06 16:35 39.19417 37.38153 40079 ft 328 kts 288°
2026-05-06 16:35 39.20865 37.32594 40130 ft 330 kts 288°
2026-05-06 16:36 39.22331 37.26958 40175 ft 331 kts 288°
2026-05-06 16:36 39.23796 37.21307 40216 ft 333 kts 288°
2026-05-06 16:37 39.25260 37.15654 40257 ft 334 kts 288°
2026-05-06 16:37 39.26457 37.10928 40221 ft 331 kts 287°
2026-05-06 16:38 39.27844 37.05312 40111 ft 326 kts 288°
2026-05-06 16:38 39.29298 36.99728 40136 ft 327 kts 289°
2026-05-06 16:39 39.30764 36.94193 40183 ft 328 kts 288°
2026-05-06 16:39 39.32221 36.88582 40224 ft 330 kts 288°
2026-05-06 16:40 39.33666 36.82936 40267 ft 331 kts 288°
2026-05-06 16:40 39.35105 36.77278 40297 ft 333 kts 288°
2026-05-06 16:41 39.36554 36.71573 40323 ft 334 kts 288°
2026-05-06 16:41 39.37997 36.65885 40366 ft 335 kts 288°
2026-05-06 16:42 39.39450 36.60139 40402 ft 337 kts 288°
2026-05-06 16:42 39.40907 36.54369 40435 ft 338 kts 288°
2026-05-06 16:43 39.42359 36.48602 40478 ft 339 kts 288°
2026-05-06 16:43 39.43820 36.42788 40515 ft 341 kts 288°
2026-05-06 16:44 39.45288 36.36933 40538 ft 342 kts 288°
2026-05-06 16:44 39.46746 36.31100 40575 ft 343 kts 288°
2026-05-06 16:45 39.48216 36.25205 40592 ft 344 kts 288°
2026-05-06 16:45 39.49687 36.19293 40592 ft 345 kts 288°
2026-05-06 16:46 39.51149 36.13403 40611 ft 345 kts 288°
2026-05-06 16:46 39.52616 36.07480 40611 ft 345 kts 288°
2026-05-06 16:47 39.54074 36.01574 40624 ft 345 kts 288°
2026-05-06 16:47 39.55539 35.95629 40628 ft 346 kts 287°
2026-05-06 16:48 39.56991 35.89719 40652 ft 346 kts 287°
2026-05-06 16:48 39.58451 35.83764 40659 ft 346 kts 287°
2026-05-06 16:49 39.59908 35.77806 40674 ft 347 kts 287°
2026-05-06 16:49 39.61364 35.71837 40692 ft 347 kts 287°
2026-05-06 16:50 39.62810 35.65892 40708 ft 348 kts 287°
2026-05-06 16:50 39.64265 35.59897 40728 ft 348 kts 287°
2026-05-06 16:51 39.65720 35.53890 40753 ft 349 kts 287°
2026-05-06 16:51 39.67165 35.47904 40779 ft 350 kts 287°
2026-05-06 16:52 39.68621 35.41859 40801 ft 350 kts 287°
2026-05-06 16:52 39.70076 35.35800 40824 ft 351 kts 287°
2026-05-06 16:53 39.71522 35.29765 40842 ft 352 kts 287°
2026-05-06 16:53 39.72979 35.23667 40857 ft 353 kts 287°
2026-05-06 16:54 39.74433 35.17567 40883 ft 353 kts 287°
2026-05-06 16:54 39.75878 35.11491 40889 ft 354 kts 287°
2026-05-06 16:55 39.77330 35.05366 40896 ft 354 kts 287°
2026-05-06 16:55 39.78771 34.99272 40903 ft 354 kts 287°
2026-05-06 16:56 39.80220 34.93131 40904 ft 355 kts 287°
2026-05-06 16:56 39.81666 34.86983 40907 ft 355 kts 287°
2026-05-06 16:57 39.83100 34.80871 40909 ft 355 kts 287°
2026-05-06 16:57 39.84541 34.74712 40912 ft 355 kts 287°
2026-05-06 16:58 39.85968 34.68596 40917 ft 355 kts 287°
2026-05-06 16:58 39.87401 34.62439 40934 ft 355 kts 287°
2026-05-06 16:59 39.88835 34.56262 40941 ft 356 kts 287°
2026-05-06 16:59 39.90252 34.50137 40946 ft 356 kts 287°
2026-05-06 17:00 39.91681 34.43947 40956 ft 356 kts 287°
2026-05-06 17:00 39.93099 34.37789 40958 ft 356 kts 287°
2026-05-06 17:01 39.94523 34.31588 40952 ft 356 kts 287°
2026-05-06 17:01 39.95942 34.25390 40970 ft 356 kts 286°
2026-05-06 17:02 39.97347 34.19237 40987 ft 356 kts 286°
2026-05-06 17:02 39.98762 34.13024 40997 ft 356 kts 286°
2026-05-06 17:03 40.00173 34.06811 41000 ft 357 kts 286°
2026-05-06 17:03 40.01577 34.00609 40999 ft 358 kts 286°
2026-05-06 17:04 40.02989 33.94360 41001 ft 359 kts 286°
2026-05-06 17:04 40.04386 33.88156 40999 ft 359 kts 286°
2026-05-06 17:05 40.05794 33.81886 40999 ft 359 kts 286°
2026-05-06 17:05 40.07189 33.75659 40998 ft 359 kts 286°
2026-05-06 17:06 40.08591 33.69380 41002 ft 359 kts 286°
2026-05-06 17:06 40.09990 33.63100 41002 ft 360 kts 286°
2026-05-06 17:07 40.11376 33.56855 40999 ft 360 kts 286°
2026-05-06 17:07 40.12771 33.50555 41002 ft 361 kts 286°
2026-05-06 17:08 40.14166 33.44238 41003 ft 362 kts 286°
2026-05-06 17:08 40.15554 33.37936 40997 ft 363 kts 286°
2026-05-06 17:09 40.16948 33.31587 41001 ft 362 kts 286°
2026-05-06 17:09 40.18337 33.25239 40999 ft 362 kts 286°
2026-05-06 17:10 40.19713 33.18937 40999 ft 362 kts 285°
2026-05-06 17:10 40.21093 33.12594 41001 ft 362 kts 285°
2026-05-06 17:11 40.22462 33.06287 41000 ft 362 kts 285°
2026-05-06 17:11 40.23837 32.99931 41001 ft 362 kts 285°
2026-05-06 17:12 40.25200 32.93613 40999 ft 362 kts 285°
2026-05-06 17:12 40.26567 32.87257 40999 ft 362 kts 285°
2026-05-06 17:13 40.27933 32.80890 41001 ft 362 kts 285°
2026-05-06 17:13 40.29285 32.74567 41003 ft 362 kts 285°
2026-05-06 17:14 40.30642 32.68200 41001 ft 363 kts 285°
2026-05-06 17:14 40.31999 32.61816 40998 ft 362 kts 285°
2026-05-06 17:15 40.33343 32.55477 41002 ft 362 kts 285°
2026-05-06 17:15 40.34689 32.49107 41001 ft 363 kts 285°
2026-05-06 17:16 40.36025 32.42763 40999 ft 363 kts 285°
2026-05-06 17:16 40.37367 32.36374 40999 ft 363 kts 285°
2026-05-06 17:17 40.38707 32.29978 40999 ft 363 kts 285°
2026-05-06 17:17 40.40043 32.23579 40997 ft 363 kts 285°
2026-05-06 17:18 40.41395 32.17239 40995 ft 362 kts 290°
2026-05-06 17:18 40.43709 32.11397 40999 ft 360 kts 302°
2026-05-06 17:19 40.46455 32.05922 41002 ft 360 kts 304°
2026-05-06 17:19 40.49293 32.00509 41000 ft 359 kts 304°
2026-05-06 17:20 40.52117 31.95113 40997 ft 358 kts 304°
2026-05-06 17:20 40.54919 31.89707 40999 ft 356 kts 304°
2026-05-06 17:21 40.57542 31.84217 40997 ft 355 kts 297°
2026-05-06 17:21 40.59400 31.78492 40998 ft 354 kts 289°
2026-05-06 17:22 40.60981 31.72361 41001 ft 353 kts 288°
2026-05-06 17:22 40.62486 31.66203 40999 ft 353 kts 288°
2026-05-06 17:23 40.63980 31.60074 41001 ft 353 kts 288°
2026-05-06 17:23 40.65491 31.53907 41005 ft 354 kts 288°
2026-05-06 17:24 40.67008 31.47727 41002 ft 354 kts 288°
2026-05-06 17:24 40.67722 31.44706 40850 ft 345 kts 283°
2026-05-06 17:24 40.68213 31.41598 40156 ft 349 kts 279°
2026-05-06 17:24 40.68593 31.38382 39305 ft 359 kts 278°
2026-05-06 17:25 40.68946 31.35101 38734 ft 362 kts 278°
2026-05-06 17:25 40.69290 31.31825 38308 ft 369 kts 278°
2026-05-06 17:25 40.69647 31.28417 37882 ft 382 kts 278°
2026-05-06 17:25 40.70017 31.24876 37428 ft 395 kts 278°
2026-05-06 17:26 40.70392 31.21273 36953 ft 398 kts 278°
2026-05-06 17:26 40.70769 31.17648 36482 ft 399 kts 278°
2026-05-06 17:26 40.71144 31.14020 35987 ft 400 kts 277°
2026-05-06 17:26 40.71521 31.10377 35464 ft 402 kts 277°
2026-05-06 17:27 40.71897 31.06723 34927 ft 402 kts 277°
2026-05-06 17:27 40.72272 31.03066 34376 ft 402 kts 277°
2026-05-06 17:27 40.72646 30.99409 33813 ft 403 kts 277°
2026-05-06 17:27 40.73015 30.95790 33251 ft 403 kts 277°
2026-05-06 17:28 40.73388 30.92117 32658 ft 404 kts 277°
2026-05-06 17:28 40.73760 30.88442 32063 ft 405 kts 277°
2026-05-06 17:28 40.74133 30.84751 31449 ft 405 kts 277°
2026-05-06 17:28 40.74504 30.81067 30818 ft 405 kts 277°
2026-05-06 17:29 40.74870 30.77416 30170 ft 405 kts 277°
2026-05-06 17:29 40.75239 30.73725 29498 ft 405 kts 277°
2026-05-06 17:29 40.75605 30.70048 28934 ft 402 kts 277°
2026-05-06 17:29 40.75968 30.66400 28482 ft 399 kts 277°
2026-05-06 17:30 40.76326 30.62775 27998 ft 396 kts 277°
2026-05-06 17:30 40.76681 30.59182 27517 ft 393 kts 277°
2026-05-06 17:30 40.77032 30.55611 27038 ft 390 kts 277°
2026-05-06 17:30 40.77376 30.52101 26566 ft 387 kts 277°
2026-05-06 17:31 40.77719 30.48588 26084 ft 384 kts 277°
2026-05-06 17:31 40.78060 30.45087 25393 ft 383 kts 277°
2026-05-06 17:31 40.78393 30.41664 24847 ft 377 kts 277°
2026-05-06 17:31 40.78723 30.38253 24302 ft 373 kts 277°
2026-05-06 17:32 40.79049 30.34875 23744 ft 369 kts 277°
2026-05-06 17:32 40.79371 30.31525 23172 ft 365 kts 277°
2026-05-06 17:32 40.79690 30.28201 22605 ft 362 kts 277°
2026-05-06 17:32 40.80004 30.24916 22043 ft 359 kts 277°
2026-05-06 17:33 40.80315 30.21647 21475 ft 356 kts 277°
2026-05-06 17:33 40.80619 30.18453 20923 ft 353 kts 277°
2026-05-06 17:33 40.80922 30.15249 20359 ft 350 kts 277°
2026-05-06 17:33 40.81222 30.12071 19810 ft 347 kts 277°
2026-05-06 17:34 40.81520 30.08912 19266 ft 344 kts 277°
2026-05-06 17:34 40.81813 30.05784 18715 ft 341 kts 277°
2026-05-06 17:34 40.82104 30.02678 18172 ft 338 kts 277°
2026-05-06 17:34 40.82388 29.99639 17638 ft 336 kts 277°
2026-05-06 17:35 40.82673 29.96578 17107 ft 333 kts 277°
2026-05-06 17:35 40.82954 29.93551 16563 ft 330 kts 277°
2026-05-06 17:35 40.83229 29.90575 16025 ft 328 kts 277°
2026-05-06 17:36 40.83776 29.84639 14961 ft 323 kts 277°
2026-05-06 17:36 40.84045 29.81700 14431 ft 320 kts 277°
2026-05-06 17:36 40.84313 29.78780 13907 ft 318 kts 277°
2026-05-06 17:36 40.84577 29.75884 13390 ft 315 kts 277°
2026-05-06 17:37 40.84837 29.73019 12873 ft 313 kts 277°
2026-05-06 17:37 40.85008 29.71132 12529 ft 311 kts 277°
2026-05-06 17:37 40.85347 29.67389 11837 ft 308 kts 277°
2026-05-06 17:37 40.85600 29.64581 11312 ft 306 kts 277°
2026-05-06 17:38 40.85767 29.62734 10971 ft 304 kts 277°
2026-05-06 17:38 40.86015 29.59965 10463 ft 302 kts 277°
2026-05-06 17:38 40.86339 29.56349 9925 ft 294 kts 276°
2026-05-06 17:38 40.86500 29.54550 9687 ft 289 kts 276°
2026-05-06 17:39 40.86734 29.51923 9270 ft 285 kts 276°
2026-05-06 17:39 40.86964 29.49334 8869 ft 282 kts 276°
2026-05-06 17:39 40.87192 29.46759 8615 ft 282 kts 276°
2026-05-06 17:39 40.87416 29.44219 8368 ft 281 kts 276°
2026-05-06 17:40 40.87642 29.41652 8117 ft 280 kts 276°
2026-05-06 17:40 40.87867 29.39094 7867 ft 279 kts 276°
2026-05-06 17:40 40.88090 29.36555 7664 ft 278 kts 276°
2026-05-06 17:40 40.88312 29.34022 7469 ft 277 kts 276°
2026-05-06 17:41 40.88532 29.31492 7226 ft 276 kts 276°
2026-05-06 17:41 40.88752 29.28971 6970 ft 275 kts 276°
2026-05-06 17:41 40.88970 29.26460 6715 ft 274 kts 276°
2026-05-06 17:41 40.89187 29.23956 6466 ft 273 kts 276°
2026-05-06 17:42 40.89402 29.21468 6214 ft 272 kts 276°
2026-05-06 17:42 40.89613 29.19017 5972 ft 271 kts 276°
2026-05-06 17:42 40.89826 29.16537 5719 ft 270 kts 276°
2026-05-06 17:42 40.90037 29.14071 5512 ft 264 kts 276°
2026-05-06 17:43 40.90239 29.11717 5369 ft 251 kts 276°
2026-05-06 17:43 40.90429 29.09486 5233 ft 242 kts 276°
2026-05-06 17:43 40.90615 29.07293 5077 ft 237 kts 276°
2026-05-06 17:43 40.90799 29.05136 4955 ft 235 kts 276°
2026-05-06 17:44 40.90981 29.02988 4922 ft 234 kts 276°
2026-05-06 17:44 40.91227 29.00883 4919 ft 234 kts 283°
2026-05-06 17:44 40.91678 28.98810 4918 ft 234 kts 287°
2026-05-06 17:44 40.92187 28.96754 4918 ft 234 kts 288°
2026-05-06 17:45 40.92703 28.94708 4915 ft 234 kts 288°
2026-05-06 17:45 40.93219 28.92659 4916 ft 234 kts 288°
2026-05-06 17:45 40.93733 28.90606 4918 ft 234 kts 288°
2026-05-06 17:45 40.94240 28.88577 4919 ft 234 kts 288°
2026-05-06 17:46 40.94750 28.86532 4916 ft 234 kts 288°
2026-05-06 17:46 40.95260 28.84481 4919 ft 234 kts 288°
2026-05-06 17:46 40.95765 28.82450 4919 ft 234 kts 288°
2026-05-06 17:46 40.96272 28.80408 4913 ft 229 kts 288°
2026-05-06 17:47 40.96807 28.78446 4915 ft 225 kts 296°
2026-05-06 17:47 40.97776 28.76856 4913 ft 223 kts 325°
2026-05-06 17:47 40.99227 28.76174 4921 ft 224 kts 352°
2026-05-06 17:47 41.00792 28.76057 4918 ft 225 kts 359°
2026-05-06 17:48 41.02325 28.76056 4901 ft 219 kts
2026-05-06 17:48 41.03833 28.76085 4752 ft 213 kts 360°
2026-05-06 17:48 41.05305 28.76072 4473 ft 210 kts 358°
2026-05-06 17:48 41.06759 28.76037 4148 ft 207 kts 358°
2026-05-06 17:49 41.08193 28.76010 3835 ft 202 kts 359°
2026-05-06 17:49 41.09552 28.75986 3565 ft 190 kts 359°
2026-05-06 17:49 41.10816 28.75963 3299 ft 174 kts 358°
2026-05-06 17:49 41.11982 28.75940 3080 ft 162 kts 358°
2026-05-06 17:50 41.13100 28.75919 2870 ft 159 kts 358°
2026-05-06 17:50 41.14199 28.75898 2689 ft 156 kts 358°
2026-05-06 17:50 41.15287 28.75877 2466 ft 156 kts 358°
2026-05-06 17:50 41.16375 28.75857 2252 ft 155 kts 358°
2026-05-06 17:51 41.17425 28.75837 2048 ft 148 kts 358°
2026-05-06 17:51 41.18438 28.75818 1846 ft 141 kts 358°
2026-05-06 17:51 41.19386 28.75800 1682 ft 136 kts 358°
2026-05-06 17:51 41.20331 28.75782 1481 ft 135 kts 358°
2026-05-06 17:52 41.21248 28.75765 1289 ft 122 kts 358°
2026-05-06 17:52 41.22116 28.75746 1130 ft 120 kts 358°
2026-05-06 17:52 41.22964 28.75738 789 ft 130 kts
2026-05-06 17:52 41.23860 28.75725 773 ft 132 kts 358°
2026-05-06 17:53 41.24792 28.75698 643 ft 133 kts 358°
2026-05-06 17:53 41.25705 28.75680 471 ft 132 kts 358°
2026-05-06 17:53 41.26612 28.75663 310 ft 127 kts 358°
2026-05-06 17:53 41.27461 28.75636 195 ft 104 kts 359°
2026-05-06 17:54 41.28016 28.75585 197 ft 60 kts 338°
2026-05-06 17:54 41.28154 28.75421 194 ft 15 kts 264°
2026-05-06 17:54 41.28109 28.75368 191 ft 6 kts 204°
2026-05-06 17:54 41.28007 28.75330 200 ft 39 kts 192°
2026-05-06 17:55 41.27823 28.75347 198 ft 29 kts 174°
2026-05-06 17:55 41.27660 28.75361 193 ft 0 kts 177°
2026-05-06 17:55 41.27657 28.75361 193 ft 0 kts 177°
2026-05-06 17:56 41.27645 28.75359 196 ft 8 kts 190°
2026-05-06 17:56 41.27607 28.75230 200 ft 23 kts 271°
2026-05-06 17:56 41.27577 28.75057 204 ft 17 kts 223°